Year,Month,Day,Hour,Minute,Value (Times are PST for barometer in hPa)
2015,07,09,00,00,994.75
2015,07,09,00,01,994.85
2015,07,09,00,03,994.92
2015,07,09,00,04,994.95
2015,07,09,00,05,994.89
2015,07,09,00,06,994.99
2015,07,09,00,07,994.95
2015,07,09,00,08,994.95
2015,07,09,00,09,994.99
2015,07,09,00,10,995.02
2015,07,09,00,11,994.99
2015,07,09,00,12,994.99
2015,07,09,00,13,994.99
2015,07,09,00,14,995.02
2015,07,09,00,15,994.99
2015,07,09,00,16,995.06
2015,07,09,00,17,994.99
2015,07,09,00,18,995.02
2015,07,09,00,19,995.09
2015,07,09,00,20,995.06
2015,07,09,00,21,994.99
2015,07,09,00,22,994.99
2015,07,09,00,23,995.16
2015,07,09,00,24,995.06
2015,07,09,00,25,995.09
2015,07,09,00,26,995.09
2015,07,09,00,27,994.99
2015,07,09,00,28,995.06
2015,07,09,00,29,995.09
2015,07,09,00,30,995.09
2015,07,09,00,31,995.09
2015,07,09,00,32,995.09
2015,07,09,00,33,995.06
2015,07,09,00,34,995.06
2015,07,09,00,35,995.06
2015,07,09,00,36,995.09
2015,07,09,00,37,995.19
2015,07,09,00,38,995.06
2015,07,09,00,39,995.02
2015,07,09,00,40,994.99
2015,07,09,00,41,995.06
2015,07,09,00,42,995.12
2015,07,09,00,43,995.12
2015,07,09,00,44,995.09
2015,07,09,00,45,995.19
2015,07,09,00,46,995.12
2015,07,09,00,47,995.16
2015,07,09,00,48,995.16
2015,07,09,00,49,995.19
2015,07,09,00,50,995.16
2015,07,09,00,51,995.19
2015,07,09,00,52,995.19
2015,07,09,00,53,995.12
2015,07,09,00,54,995.12
2015,07,09,00,55,995.12
2015,07,09,00,56,995.19
2015,07,09,00,57,995.09
2015,07,09,00,58,995.19
2015,07,09,00,59,995.09
2015,07,09,01,00,995.09
2015,07,09,01,01,995.16
2015,07,09,01,02,995.02
2015,07,09,01,03,995.09
2015,07,09,01,04,995.12
2015,07,09,01,05,995.12
2015,07,09,01,06,995.16
2015,07,09,01,07,995.06
2015,07,09,01,08,995.29
2015,07,09,01,09,995.12
2015,07,09,01,10,995.26
2015,07,09,01,11,995.29
2015,07,09,01,12,995.16
2015,07,09,01,13,995.23
2015,07,09,01,14,995.23
2015,07,09,01,15,995.29
2015,07,09,01,16,995.33
2015,07,09,01,17,995.29
2015,07,09,01,18,995.40
2015,07,09,01,19,995.36
2015,07,09,01,20,995.29
2015,07,09,01,21,995.33
2015,07,09,01,22,995.36
2015,07,09,01,23,995.36
2015,07,09,01,24,995.40
2015,07,09,01,25,995.40
2015,07,09,01,26,995.29
2015,07,09,01,27,995.40
2015,07,09,01,28,995.40
2015,07,09,01,29,995.29
2015,07,09,01,30,995.36
2015,07,09,01,31,995.40
2015,07,09,01,32,995.43
2015,07,09,01,33,995.36
2015,07,09,01,34,995.36
2015,07,09,01,35,995.33
2015,07,09,01,36,995.43
2015,07,09,01,37,995.33
2015,07,09,01,38,995.50
2015,07,09,01,39,995.43
2015,07,09,01,40,995.46
2015,07,09,01,41,995.50
2015,07,09,01,42,995.43
2015,07,09,01,43,995.46
2015,07,09,01,44,995.33
2015,07,09,01,45,995.43
2015,07,09,01,46,995.46
2015,07,09,01,47,995.50
2015,07,09,01,48,995.46
2015,07,09,01,49,995.46
2015,07,09,01,50,995.46
2015,07,09,01,51,995.40
2015,07,09,01,52,995.50
2015,07,09,01,53,995.50
2015,07,09,01,54,995.43
2015,07,09,01,55,995.56
2015,07,09,01,56,995.46
2015,07,09,01,57,995.53
2015,07,09,01,58,995.53
2015,07,09,01,59,995.60
2015,07,09,02,00,995.60
2015,07,09,02,01,995.53
2015,07,09,02,02,995.46
2015,07,09,02,03,995.50
2015,07,09,02,04,995.46
2015,07,09,02,05,995.43
2015,07,09,02,06,995.46
2015,07,09,02,07,995.50
2015,07,09,02,08,995.53
2015,07,09,02,09,995.46
2015,07,09,02,10,995.50
2015,07,09,02,11,995.67
2015,07,09,02,12,995.56
2015,07,09,02,13,995.63
2015,07,09,02,14,995.56
2015,07,09,02,15,995.56
2015,07,09,02,16,995.63
2015,07,09,02,17,995.60
2015,07,09,02,18,995.60
2015,07,09,02,19,995.63
2015,07,09,02,20,995.63
2015,07,09,02,21,995.56
2015,07,09,02,22,995.67
2015,07,09,02,23,995.60
2015,07,09,02,24,995.63
2015,07,09,02,25,995.63
2015,07,09,02,26,995.77
2015,07,09,02,27,995.70
2015,07,09,02,28,995.70
2015,07,09,02,29,995.56
2015,07,09,02,30,995.60
2015,07,09,02,31,995.67
2015,07,09,02,32,995.70
2015,07,09,02,33,995.77
2015,07,09,02,34,995.73
2015,07,09,02,35,995.70
2015,07,09,02,36,995.73
2015,07,09,02,37,995.67
2015,07,09,02,38,995.60
2015,07,09,02,39,995.70
2015,07,09,02,40,995.63
2015,07,09,02,41,995.60
2015,07,09,02,42,995.63
2015,07,09,02,43,995.63
2015,07,09,02,44,995.63
2015,07,09,02,45,995.67
2015,07,09,02,46,995.63
2015,07,09,02,47,995.73
2015,07,09,02,48,995.67
2015,07,09,02,49,995.60
2015,07,09,02,50,995.67
2015,07,09,02,51,995.60
2015,07,09,02,52,995.63
2015,07,09,02,53,995.67
2015,07,09,02,54,995.77
2015,07,09,02,55,995.70
2015,07,09,02,56,995.70
2015,07,09,02,57,995.73
2015,07,09,02,58,995.80
2015,07,09,02,59,995.77
2015,07,09,03,00,995.77
2015,07,09,03,01,995.84
2015,07,09,03,02,995.73
2015,07,09,03,03,995.73
2015,07,09,03,04,995.80
2015,07,09,03,05,995.84
2015,07,09,03,06,995.80
2015,07,09,03,07,995.80
2015,07,09,03,08,995.84
2015,07,09,03,09,995.84
2015,07,09,03,10,995.84
2015,07,09,03,11,995.84
2015,07,09,03,12,995.84
2015,07,09,03,13,995.90
2015,07,09,03,14,995.87
2015,07,09,03,15,995.84
2015,07,09,03,16,995.80
2015,07,09,03,17,995.87
2015,07,09,03,18,995.90
2015,07,09,03,19,995.87
2015,07,09,03,20,995.87
2015,07,09,03,21,995.80
2015,07,09,03,22,995.90
2015,07,09,03,23,995.87
2015,07,09,03,24,995.90
2015,07,09,03,25,995.97
2015,07,09,03,26,995.94
2015,07,09,03,27,995.94
2015,07,09,03,28,995.94
2015,07,09,03,29,995.90
2015,07,09,03,30,995.90
2015,07,09,03,31,996.07
2015,07,09,03,32,996.04
2015,07,09,03,33,995.97
2015,07,09,03,34,996.00
2015,07,09,03,35,995.94
2015,07,09,03,36,995.94
2015,07,09,03,37,996.00
2015,07,09,03,38,995.94
2015,07,09,03,39,995.90
2015,07,09,03,40,995.94
2015,07,09,03,41,995.94
2015,07,09,03,42,995.97
2015,07,09,03,43,995.97
2015,07,09,03,44,995.90
2015,07,09,03,45,995.90
2015,07,09,03,46,995.97
2015,07,09,03,47,995.94
2015,07,09,03,48,995.90
2015,07,09,03,49,995.94
2015,07,09,03,50,995.87
2015,07,09,03,51,995.87
2015,07,09,03,52,995.90
2015,07,09,03,53,995.94
2015,07,09,03,54,995.84
2015,07,09,03,55,995.94
2015,07,09,03,56,995.87
2015,07,09,03,57,995.90
2015,07,09,03,58,995.90
2015,07,09,03,59,995.94
2015,07,09,04,00,995.94
2015,07,09,04,01,995.97
2015,07,09,04,02,996.04
2015,07,09,04,03,996.00
2015,07,09,04,04,996.04
2015,07,09,04,05,995.94
2015,07,09,04,06,995.97
2015,07,09,04,07,995.97
2015,07,09,04,08,995.94
2015,07,09,04,09,995.90
2015,07,09,04,10,995.94
2015,07,09,04,11,995.94
2015,07,09,04,12,995.97
2015,07,09,04,13,996.00
2015,07,09,04,14,995.97
2015,07,09,04,15,995.97
2015,07,09,04,16,996.00
2015,07,09,04,17,995.94
2015,07,09,04,18,996.04
2015,07,09,04,19,996.00
2015,07,09,04,20,996.00
2015,07,09,04,21,996.04
2015,07,09,04,22,995.97
2015,07,09,04,23,996.07
2015,07,09,04,24,996.00
2015,07,09,04,25,996.04
2015,07,09,04,26,995.97
2015,07,09,04,27,995.97
2015,07,09,04,28,995.97
2015,07,09,04,29,996.00
2015,07,09,04,30,995.97
2015,07,09,04,31,996.00
2015,07,09,04,32,996.00
2015,07,09,04,33,996.00
2015,07,09,04,34,996.00
2015,07,09,04,35,996.04
2015,07,09,04,36,996.04
2015,07,09,04,37,996.07
2015,07,09,04,38,996.00
2015,07,09,04,39,995.97
2015,07,09,04,40,996.00
2015,07,09,04,41,995.97
2015,07,09,04,42,996.00
2015,07,09,04,43,995.97
2015,07,09,04,44,995.94
2015,07,09,04,45,995.90
2015,07,09,04,46,995.90
2015,07,09,04,47,995.84
2015,07,09,04,48,995.84
2015,07,09,04,49,995.90
2015,07,09,04,50,995.94
2015,07,09,04,51,995.87
2015,07,09,04,52,995.90
2015,07,09,04,53,995.84
2015,07,09,04,54,995.94
2015,07,09,04,55,995.87
2015,07,09,04,56,995.80
2015,07,09,04,57,995.90
2015,07,09,04,58,995.87
2015,07,09,04,59,995.87
2015,07,09,05,00,995.87
2015,07,09,05,01,995.80
2015,07,09,05,02,995.84
2015,07,09,05,03,995.84
2015,07,09,05,04,995.80
2015,07,09,05,05,995.77
2015,07,09,05,06,995.80
2015,07,09,05,07,995.84
2015,07,09,05,08,995.80
2015,07,09,05,09,995.84
2015,07,09,05,10,995.80
2015,07,09,05,11,995.84
2015,07,09,05,12,995.77
2015,07,09,05,13,995.87
2015,07,09,05,14,995.77
2015,07,09,05,15,995.77
2015,07,09,05,16,995.77
2015,07,09,05,17,995.80
2015,07,09,05,18,995.80
2015,07,09,05,19,995.73
2015,07,09,05,20,995.84
2015,07,09,05,21,995.84
2015,07,09,05,22,995.87
2015,07,09,05,23,995.84
2015,07,09,05,24,995.84
2015,07,09,05,25,995.80
2015,07,09,05,26,995.77
2015,07,09,05,27,995.80
2015,07,09,05,28,995.84
2015,07,09,05,29,995.77
2015,07,09,05,30,995.77
2015,07,09,05,31,995.84
2015,07,09,05,32,995.84
2015,07,09,05,33,995.87
2015,07,09,05,34,995.87
2015,07,09,05,35,995.87
2015,07,09,05,36,995.87
2015,07,09,05,37,995.87
2015,07,09,05,38,995.80
2015,07,09,05,39,995.87
2015,07,09,05,40,995.84
2015,07,09,05,41,995.87
2015,07,09,05,42,995.87
2015,07,09,05,43,995.87
2015,07,09,05,44,995.87
2015,07,09,05,45,995.94
2015,07,09,05,46,995.94
2015,07,09,05,47,995.94
2015,07,09,05,48,995.90
2015,07,09,05,49,995.94
2015,07,09,05,50,995.94
2015,07,09,05,51,995.87
2015,07,09,05,52,995.87
2015,07,09,05,53,995.87
2015,07,09,05,54,995.87
2015,07,09,05,55,995.90
2015,07,09,05,56,995.87
2015,07,09,05,57,995.87
2015,07,09,05,58,995.87
2015,07,09,05,59,995.87
2015,07,09,06,00,995.87
2015,07,09,06,01,995.87
2015,07,09,06,02,995.90
2015,07,09,06,03,995.90
2015,07,09,06,04,995.90
2015,07,09,06,05,995.87
2015,07,09,06,06,995.87
2015,07,09,06,07,995.87
2015,07,09,06,08,995.84
2015,07,09,06,09,995.80
2015,07,09,06,10,995.80
2015,07,09,06,11,995.80
2015,07,09,06,12,995.80
2015,07,09,06,13,995.80
2015,07,09,06,14,995.80
2015,07,09,06,15,995.80
2015,07,09,06,16,995.77
2015,07,09,06,17,995.73
2015,07,09,06,18,995.73
2015,07,09,06,19,995.80
2015,07,09,06,20,995.80
2015,07,09,06,21,995.80
2015,07,09,06,22,995.77
2015,07,09,06,23,995.77
2015,07,09,06,24,995.77
2015,07,09,06,25,995.77
2015,07,09,06,26,995.77
2015,07,09,06,27,995.80
2015,07,09,06,28,995.80
2015,07,09,06,29,995.80
2015,07,09,06,30,995.80
2015,07,09,06,31,995.84
2015,07,09,06,32,995.87
2015,07,09,06,33,995.87
2015,07,09,06,34,995.87
2015,07,09,06,35,995.87
2015,07,09,06,36,995.84
2015,07,09,06,37,995.90
2015,07,09,06,38,995.90
2015,07,09,06,39,995.87
2015,07,09,06,40,995.87
2015,07,09,06,41,995.94
2015,07,09,06,42,995.94
2015,07,09,06,43,995.97
2015,07,09,06,44,996.00
2015,07,09,06,45,996.00
2015,07,09,06,46,995.94
2015,07,09,06,47,995.94
2015,07,09,06,48,995.90
2015,07,09,06,49,995.90
2015,07,09,06,50,995.90
2015,07,09,06,51,995.90
2015,07,09,06,52,995.90
2015,07,09,06,53,995.87
2015,07,09,06,54,995.90
2015,07,09,06,55,995.90
2015,07,09,06,56,995.90
2015,07,09,06,57,995.87
2015,07,09,06,58,995.84
2015,07,09,06,59,995.90
2015,07,09,07,00,995.87
2015,07,09,07,01,995.90
2015,07,09,07,02,995.87
2015,07,09,07,03,995.90
2015,07,09,07,04,995.90
2015,07,09,07,05,995.90
2015,07,09,07,06,995.90
2015,07,09,07,07,995.90
2015,07,09,07,08,995.90
2015,07,09,07,09,995.90
2015,07,09,07,10,995.94
2015,07,09,07,11,995.97
2015,07,09,07,12,995.94
2015,07,09,07,13,995.97
2015,07,09,07,14,996.04
2015,07,09,07,15,995.97
2015,07,09,07,16,995.94
2015,07,09,07,17,995.97
2015,07,09,07,18,996.00
2015,07,09,07,19,995.94
2015,07,09,07,20,995.94
2015,07,09,07,21,995.94
2015,07,09,07,22,995.94
2015,07,09,07,23,995.90
2015,07,09,07,24,995.97
2015,07,09,07,25,995.97
2015,07,09,07,26,995.97
2015,07,09,07,27,995.94
2015,07,09,07,28,995.90
2015,07,09,07,29,995.97
2015,07,09,07,30,995.97
2015,07,09,07,31,995.97
2015,07,09,07,32,995.94
2015,07,09,07,33,995.97
2015,07,09,07,34,995.97
2015,07,09,07,35,995.97
2015,07,09,07,36,995.97
2015,07,09,07,37,995.97
2015,07,09,07,38,995.94
2015,07,09,07,39,995.97
2015,07,09,07,40,995.97
2015,07,09,07,41,995.97
2015,07,09,07,42,996.00
2015,07,09,07,43,996.00
2015,07,09,07,44,996.00
2015,07,09,07,45,996.00
2015,07,09,07,46,996.00
2015,07,09,07,47,995.97
2015,07,09,07,48,996.00
2015,07,09,07,49,995.97
2015,07,09,07,50,995.94
2015,07,09,07,51,995.94
2015,07,09,07,52,995.97
2015,07,09,07,53,995.94
2015,07,09,07,54,995.94
2015,07,09,07,55,995.90
2015,07,09,07,56,995.94
2015,07,09,07,57,995.94
2015,07,09,07,58,995.94
2015,07,09,07,59,995.90
2015,07,09,08,00,995.90
2015,07,09,08,01,995.94
2015,07,09,08,02,995.94
2015,07,09,08,03,995.94
2015,07,09,08,04,995.97
2015,07,09,08,05,995.94
2015,07,09,08,06,995.97
2015,07,09,08,07,995.94
2015,07,09,08,08,995.97
2015,07,09,08,09,995.87
2015,07,09,08,10,995.94
2015,07,09,08,11,995.90
2015,07,09,08,12,995.94
2015,07,09,08,13,995.97
2015,07,09,08,14,995.94
2015,07,09,08,15,995.97
2015,07,09,08,16,995.97
2015,07,09,08,17,996.00
2015,07,09,08,18,996.00
2015,07,09,08,19,995.97
2015,07,09,08,20,995.97
2015,07,09,08,21,995.90
2015,07,09,08,22,995.90
2015,07,09,08,23,995.87
2015,07,09,08,24,995.94
2015,07,09,08,25,995.87
2015,07,09,08,26,995.94
2015,07,09,08,27,995.90
2015,07,09,08,28,995.94
2015,07,09,08,29,995.94
2015,07,09,08,30,995.97
2015,07,09,08,31,995.94
2015,07,09,08,32,995.94
2015,07,09,08,33,995.94
2015,07,09,08,34,995.90
2015,07,09,08,35,995.94
2015,07,09,08,36,995.90
2015,07,09,08,37,995.87
2015,07,09,08,38,995.87
2015,07,09,08,39,995.87
2015,07,09,08,40,995.90
2015,07,09,08,41,995.87
2015,07,09,08,42,995.90
2015,07,09,08,43,995.90
2015,07,09,08,44,995.94
2015,07,09,08,45,995.94
2015,07,09,08,46,995.94
2015,07,09,08,47,995.94
2015,07,09,08,48,995.94
2015,07,09,08,49,995.94
2015,07,09,08,50,995.97
2015,07,09,08,51,995.97
2015,07,09,08,52,995.97
2015,07,09,08,53,995.97
2015,07,09,08,54,995.94
2015,07,09,08,55,995.94
2015,07,09,08,56,995.94
2015,07,09,08,57,995.94
2015,07,09,08,58,995.94
2015,07,09,08,59,995.97
2015,07,09,09,00,995.97
2015,07,09,09,01,995.97
2015,07,09,09,02,995.97
2015,07,09,09,03,995.97
2015,07,09,09,04,995.94
2015,07,09,09,05,995.97
2015,07,09,09,06,995.90
2015,07,09,09,07,995.90
2015,07,09,09,08,995.90
2015,07,09,09,09,995.90
2015,07,09,09,10,995.87
2015,07,09,09,11,995.87
2015,07,09,09,12,995.90
2015,07,09,09,13,995.84
2015,07,09,09,14,995.87
2015,07,09,09,15,995.87
2015,07,09,09,16,995.84
2015,07,09,09,17,995.87
2015,07,09,09,18,995.84
2015,07,09,09,19,995.80
2015,07,09,09,20,995.84
2015,07,09,09,21,995.84
2015,07,09,09,22,995.80
2015,07,09,09,23,995.80
2015,07,09,09,24,995.80
2015,07,09,09,25,995.77
2015,07,09,09,26,995.77
2015,07,09,09,27,995.77
2015,07,09,09,28,995.77
2015,07,09,09,29,995.70
2015,07,09,09,30,995.70
2015,07,09,09,32,995.70
2015,07,09,09,33,995.70
2015,07,09,09,34,995.70
2015,07,09,09,35,995.67
2015,07,09,09,36,995.67
2015,07,09,09,37,995.67
2015,07,09,09,38,995.67
2015,07,09,09,39,995.70
2015,07,09,09,40,995.70
2015,07,09,09,41,995.70
2015,07,09,09,42,995.70
2015,07,09,09,43,995.67
2015,07,09,09,44,995.70
2015,07,09,09,45,995.70
2015,07,09,09,46,995.67
2015,07,09,09,47,995.67
2015,07,09,09,48,995.70
2015,07,09,09,49,995.70
2015,07,09,09,50,995.70
2015,07,09,09,51,995.70
2015,07,09,09,52,995.77
2015,07,09,09,53,995.67
2015,07,09,09,54,995.73
2015,07,09,09,55,995.70
2015,07,09,09,56,995.70
2015,07,09,09,57,995.70
2015,07,09,09,58,995.67
2015,07,09,09,59,995.60
2015,07,09,10,00,995.56
2015,07,09,10,01,995.56
2015,07,09,10,03,995.46
2015,07,09,10,04,995.50
2015,07,09,10,05,995.56
2015,07,09,10,06,995.46
2015,07,09,10,07,995.46
2015,07,09,10,08,995.50
2015,07,09,10,09,995.46
2015,07,09,10,10,995.40
2015,07,09,10,11,995.43
2015,07,09,10,12,995.43
2015,07,09,10,13,995.40
2015,07,09,10,14,995.43
2015,07,09,10,15,995.40
2015,07,09,10,16,995.36
2015,07,09,10,17,995.33
2015,07,09,10,18,995.33
2015,07,09,10,19,995.36
2015,07,09,10,20,995.29
2015,07,09,10,21,995.33
2015,07,09,10,22,995.26
2015,07,09,10,23,995.29
2015,07,09,10,24,995.26
2015,07,09,10,25,995.26
2015,07,09,10,26,995.23
2015,07,09,10,27,995.26
2015,07,09,10,28,995.29
2015,07,09,10,29,995.29
2015,07,09,10,30,995.29
2015,07,09,10,31,995.26
2015,07,09,10,32,995.29
2015,07,09,10,34,995.26
2015,07,09,10,35,995.29
2015,07,09,10,36,995.29
2015,07,09,10,37,995.29
2015,07,09,10,38,995.23
2015,07,09,10,39,995.19
2015,07,09,10,40,995.19
2015,07,09,10,41,995.16
2015,07,09,10,42,995.19
2015,07,09,10,43,995.19
2015,07,09,10,44,995.16
2015,07,09,10,45,995.16
2015,07,09,10,46,995.16
2015,07,09,10,47,995.16
2015,07,09,10,48,995.19
2015,07,09,10,49,995.09
2015,07,09,10,50,995.16
2015,07,09,10,51,995.09
2015,07,09,10,52,995.16
2015,07,09,10,53,995.09
2015,07,09,10,54,995.06
2015,07,09,10,55,995.09
2015,07,09,10,56,995.06
2015,07,09,10,57,995.09
2015,07,09,10,58,995.09
2015,07,09,10,59,995.06
2015,07,09,11,00,995.02
2015,07,09,11,01,995.02
2015,07,09,11,02,994.95
2015,07,09,11,03,994.99
2015,07,09,11,04,994.95
2015,07,09,11,05,994.95
2015,07,09,11,06,995.02
2015,07,09,11,07,994.95
2015,07,09,11,08,994.95
2015,07,09,11,09,994.92
2015,07,09,11,10,994.89
2015,07,09,11,11,994.85
2015,07,09,11,12,994.82
2015,07,09,11,13,994.85
2015,07,09,11,14,994.89
2015,07,09,11,15,994.85
2015,07,09,11,16,994.82
2015,07,09,11,17,994.82
2015,07,09,11,18,994.82
2015,07,09,11,19,994.79
2015,07,09,11,20,994.79
2015,07,09,11,21,994.75
2015,07,09,11,22,994.72
2015,07,09,11,23,994.72
2015,07,09,11,24,994.68
2015,07,09,11,25,994.68
2015,07,09,11,26,994.75
2015,07,09,11,27,994.68
2015,07,09,11,28,994.68
2015,07,09,11,29,994.68
2015,07,09,11,30,994.62
2015,07,09,11,31,994.65
2015,07,09,11,32,994.68
2015,07,09,11,33,994.68
2015,07,09,11,34,994.68
2015,07,09,11,35,994.65
2015,07,09,11,36,994.65
2015,07,09,11,37,994.68
2015,07,09,11,38,994.62
2015,07,09,11,39,994.55
2015,07,09,11,40,994.55
2015,07,09,11,41,994.58
2015,07,09,11,42,994.51
2015,07,09,11,43,994.48
2015,07,09,11,44,994.45
2015,07,09,11,45,994.51
2015,07,09,11,46,994.51
2015,07,09,11,47,994.45
2015,07,09,11,48,994.45
2015,07,09,11,49,994.41
2015,07,09,11,50,994.41
2015,07,09,11,51,994.38
2015,07,09,11,52,994.38
2015,07,09,11,53,994.38
2015,07,09,11,54,994.38
2015,07,09,11,55,994.35
2015,07,09,11,56,994.41
2015,07,09,11,57,994.41
2015,07,09,11,58,994.35
2015,07,09,11,59,994.38
2015,07,09,12,00,994.38
2015,07,09,12,01,994.35
2015,07,09,12,02,994.35
2015,07,09,12,03,994.28
2015,07,09,12,04,994.31
2015,07,09,12,05,994.35
2015,07,09,12,06,994.31
2015,07,09,12,07,994.31
2015,07,09,12,08,994.24
2015,07,09,12,09,994.24
2015,07,09,12,11,994.24
2015,07,09,12,12,994.24
2015,07,09,12,13,994.24
2015,07,09,12,14,994.21
2015,07,09,12,15,994.14
2015,07,09,12,16,994.18
2015,07,09,12,17,994.14
2015,07,09,12,18,994.14
2015,07,09,12,19,994.14
2015,07,09,12,20,994.14
2015,07,09,12,21,994.14
2015,07,09,12,22,994.18
2015,07,09,12,23,994.11
2015,07,09,12,24,994.01
2015,07,09,12,25,994.04
2015,07,09,12,26,994.01
2015,07,09,12,27,994.07
2015,07,09,12,28,994.04
2015,07,09,12,29,994.04
2015,07,09,12,30,994.07
2015,07,09,12,31,994.01
2015,07,09,12,32,994.01
2015,07,09,12,33,993.97
2015,07,09,12,34,994.01
2015,07,09,12,35,993.97
2015,07,09,12,36,993.97
2015,07,09,12,37,993.97
2015,07,09,12,38,993.97
2015,07,09,12,39,993.91
2015,07,09,12,40,993.94
2015,07,09,12,41,993.87
2015,07,09,12,42,993.94
2015,07,09,12,43,994.01
2015,07,09,12,44,993.97
2015,07,09,12,45,993.91
2015,07,09,12,46,994.01
2015,07,09,12,47,993.87
2015,07,09,12,48,993.87
2015,07,09,12,49,993.87
2015,07,09,12,50,993.87
2015,07,09,12,51,993.84
2015,07,09,12,52,993.74
2015,07,09,12,53,993.80
2015,07,09,12,54,993.74
2015,07,09,12,55,993.77
2015,07,09,12,57,993.80
2015,07,09,12,58,993.74
2015,07,09,12,59,993.70
2015,07,09,13,00,993.77
2015,07,09,13,01,993.67
2015,07,09,13,02,993.63
2015,07,09,13,03,993.70
2015,07,09,13,04,993.67
2015,07,09,13,05,993.70
2015,07,09,13,06,993.74
2015,07,09,13,07,993.74
2015,07,09,13,08,993.67
2015,07,09,13,09,993.60
2015,07,09,13,10,993.60
2015,07,09,13,11,993.60
2015,07,09,13,12,993.60
2015,07,09,13,13,993.63
2015,07,09,13,14,993.67
2015,07,09,13,15,993.57
2015,07,09,13,16,993.70
2015,07,09,13,17,993.60
2015,07,09,13,18,993.50
2015,07,09,13,19,993.63
2015,07,09,13,20,993.60
2015,07,09,13,21,993.60
2015,07,09,13,22,993.53
2015,07,09,13,23,993.50
2015,07,09,13,24,993.50
2015,07,09,13,25,993.46
2015,07,09,13,26,993.46
2015,07,09,13,27,993.40
2015,07,09,13,28,993.40
2015,07,09,13,29,993.36
2015,07,09,13,30,993.36
2015,07,09,13,31,993.33
2015,07,09,13,32,993.30
2015,07,09,13,33,993.26
2015,07,09,13,34,993.30
2015,07,09,13,35,993.26
2015,07,09,13,36,993.26
2015,07,09,13,37,993.26
2015,07,09,13,38,993.19
2015,07,09,13,39,993.23
2015,07,09,13,40,993.13
2015,07,09,13,41,993.13
2015,07,09,13,42,993.13
2015,07,09,13,43,993.13
2015,07,09,13,44,993.13
2015,07,09,13,45,993.06
2015,07,09,13,46,993.02
2015,07,09,13,47,993.02
2015,07,09,13,48,992.96
2015,07,09,13,49,992.99
2015,07,09,13,50,993.06
2015,07,09,13,51,993.02
2015,07,09,13,52,993.06
2015,07,09,13,53,992.99
2015,07,09,13,54,992.99
2015,07,09,13,55,992.96
2015,07,09,13,56,992.99
2015,07,09,13,57,992.92
2015,07,09,13,58,992.92
2015,07,09,13,59,992.96
2015,07,09,14,00,992.89
2015,07,09,14,01,992.92
2015,07,09,14,02,992.89
2015,07,09,14,03,992.89
2015,07,09,14,04,992.86
2015,07,09,14,05,992.89
2015,07,09,14,06,992.86
2015,07,09,14,07,992.89
2015,07,09,14,08,992.86
2015,07,09,14,09,992.86
2015,07,09,14,10,992.79
2015,07,09,14,11,992.82
2015,07,09,14,12,992.79
2015,07,09,14,13,992.79
2015,07,09,14,14,992.82
2015,07,09,14,15,992.75
2015,07,09,14,16,992.75
2015,07,09,14,17,992.79
2015,07,09,14,18,992.79
2015,07,09,14,19,992.72
2015,07,09,14,20,992.79
2015,07,09,14,21,992.72
2015,07,09,14,22,992.72
2015,07,09,14,23,992.72
2015,07,09,14,24,992.69
2015,07,09,14,25,992.69
2015,07,09,14,26,992.69
2015,07,09,14,27,992.65
2015,07,09,14,28,992.62
2015,07,09,14,29,992.62
2015,07,09,14,30,992.62
2015,07,09,14,31,992.69
2015,07,09,14,32,992.65
2015,07,09,14,33,992.69
2015,07,09,14,34,992.62
2015,07,09,14,35,992.69
2015,07,09,14,36,992.65
2015,07,09,14,37,992.62
2015,07,09,14,38,992.69
2015,07,09,14,39,992.58
2015,07,09,14,40,992.65
2015,07,09,14,41,992.62
2015,07,09,14,42,992.62
2015,07,09,14,43,992.52
2015,07,09,14,44,992.55
2015,07,09,14,45,992.65
2015,07,09,14,46,992.55
2015,07,09,14,47,992.58
2015,07,09,14,48,992.45
2015,07,09,14,49,992.58
2015,07,09,14,50,992.45
2015,07,09,14,51,992.55
2015,07,09,14,52,992.45
2015,07,09,14,53,992.35
2015,07,09,14,54,992.35
2015,07,09,14,55,992.35
2015,07,09,14,56,992.45
2015,07,09,14,57,992.38
2015,07,09,14,58,992.42
2015,07,09,14,59,992.45
2015,07,09,15,00,992.31
2015,07,09,15,01,992.35
2015,07,09,15,02,992.21
2015,07,09,15,03,992.31
2015,07,09,15,04,992.31
2015,07,09,15,05,992.42
2015,07,09,15,06,992.31
2015,07,09,15,07,992.35
2015,07,09,15,08,992.38
2015,07,09,15,09,992.25
2015,07,09,15,10,992.28
2015,07,09,15,11,992.28
2015,07,09,15,12,992.18
2015,07,09,15,13,992.14
2015,07,09,15,14,992.11
2015,07,09,15,15,992.28
2015,07,09,15,16,992.25
2015,07,09,15,17,992.08
2015,07,09,15,18,992.01
2015,07,09,15,19,992.35
2015,07,09,15,20,992.04
2015,07,09,15,21,992.14
2015,07,09,15,22,992.04
2015,07,09,15,23,991.97
2015,07,09,15,24,992.25
2015,07,09,15,25,992.14
2015,07,09,15,26,992.08
2015,07,09,15,27,991.94
2015,07,09,15,28,991.97
2015,07,09,15,29,992.01
2015,07,09,15,30,991.94
2015,07,09,15,31,991.97
2015,07,09,15,32,991.91
2015,07,09,15,33,991.81
2015,07,09,15,34,991.87
2015,07,09,15,35,991.81
2015,07,09,15,36,991.84
2015,07,09,15,37,991.74
2015,07,09,15,38,991.70
2015,07,09,15,39,991.84
2015,07,09,15,40,991.84
2015,07,09,15,41,991.77
2015,07,09,15,42,991.67
2015,07,09,15,43,991.77
2015,07,09,15,44,991.64
2015,07,09,15,45,991.70
2015,07,09,15,46,991.81
2015,07,09,15,47,991.70
2015,07,09,15,48,991.74
2015,07,09,15,49,991.74
2015,07,09,15,50,991.77
2015,07,09,15,51,991.77
2015,07,09,15,52,991.87
2015,07,09,15,53,991.67
2015,07,09,15,54,991.67
2015,07,09,15,55,991.70
2015,07,09,15,56,991.74
2015,07,09,15,57,991.77
2015,07,09,15,58,991.81
2015,07,09,15,59,991.84
2015,07,09,16,00,991.64
2015,07,09,16,01,991.81
2015,07,09,16,02,991.74
2015,07,09,16,03,991.81
2015,07,09,16,04,991.74
2015,07,09,16,05,991.74
2015,07,09,16,06,991.74
2015,07,09,16,07,991.64
2015,07,09,16,08,991.70
2015,07,09,16,09,991.47
2015,07,09,16,10,991.60
2015,07,09,16,11,991.60
2015,07,09,16,12,991.67
2015,07,09,16,13,991.57
2015,07,09,16,14,991.60
2015,07,09,16,15,991.50
2015,07,09,16,16,991.53
2015,07,09,16,17,991.57
2015,07,09,16,18,991.50
2015,07,09,16,19,991.47
2015,07,09,16,20,991.47
2015,07,09,16,21,991.57
2015,07,09,16,22,991.40
2015,07,09,16,23,991.50
2015,07,09,16,24,991.37
2015,07,09,16,25,991.23
2015,07,09,16,26,991.26
2015,07,09,16,27,991.40
2015,07,09,16,28,991.57
2015,07,09,16,29,991.37
2015,07,09,16,30,991.40
2015,07,09,16,31,991.33
2015,07,09,16,32,991.40
2015,07,09,16,33,991.40
2015,07,09,16,34,991.26
2015,07,09,16,35,991.30
2015,07,09,16,36,991.30
2015,07,09,16,37,991.33
2015,07,09,16,38,991.33
2015,07,09,16,39,991.26
2015,07,09,16,40,991.37
2015,07,09,16,41,991.33
2015,07,09,16,42,991.43